Miscellaneous Local Product
Issued by NWS Hastings, NE

Home | Current Version | Previous Version | Graphics & Text | Print | Product List | Glossary On
Versions: 1 2 3 4 5 6 7 8 9 10 11 12 13 14 15 16 17 18 19 20 21 22 23 24 25 26 27 28 29 30 31 32 33 34 35 36 37 38 39 40 41 42 43 44 45 46 47 48 49 50
235
AXUS43 KGID 232302
MISGRI

GID CWA HOURLY WEATHER ROUNDUP
NATIONAL WEATHER SERVICE HASTINGS NE
600 PM CDT TUE MAY 23 2017

NOTE: "FAIR" INDICATES FEW OR NO CLOUDS BELOW 12,000 FEET WITH NO
SIGNIFICANT WEATHER AND/OR OBSTRUCTIONS TO VISIBILITY.

...SOUTH CENTRAL NEBRASKA...

CITY           SKY/WX    TMP DP  RH WIND       PRES   REMARKS
GRAND ISLAND   CLOUDY    54  42  64 NW20      29.92F
HASTINGS       CLOUDY    54  41  61 N17       29.93F
KEARNEY        CLOUDY    55  37  50 N21G30    29.95S
ORD            CLOUDY    53  39  59 N18G30    29.93F
YORK           CLOUDY    55  41  58 NW20      29.89F
AURORA         CLOUDY    55  40  56 N17       29.91F
LEXINGTON      CLOUDY    56  40  54 N21       29.97F
HOLDREGE       CLOUDY    55  38  52 N18G28    29.96S
HEBRON         PTSUNNY   57  43  58 N18G29    29.90S

...NEBRASKA PANHANDLE...

CITY           SKY/WX    TMP DP  RH WIND       PRES   REMARKS
CHADRON        SUNNY     62  38  40 NE18G25   30.05F
ALLIANCE       PTSUNNY   60  36  40 N21G29    30.04F
SCOTTSBLUFF    PTSUNNY   63  31  30 N21G28    30.05F
SIDNEY         MOSUNNY   59  36  42 N17G30    30.05F

...WESTERN AND NORTH CENTRAL NEBRASKA...

CITY           SKY/WX    TMP DP  RH WIND       PRES   REMARKS
VALENTINE      CLOUDY    55  38  52 N13       30.00S
AINSWORTH      CLOUDY    56  43  62 N20G25    29.98S
ONEILL         DRIZZLE   51  43  72 NW16G23   29.95F
BROKEN BOW     CLOUDY    55  40  56 N24G36    29.96S
IMPERIAL       MOSUNNY   59  33  37 N16G32    30.01F
NORTH PLATTE   CLOUDY    59  36  42 N24       29.99F
MCCOOK         CLOUDY    61  36  39 N25G35    29.99S

...EASTERN NEBRASKA...

CITY           SKY/WX    TMP DP  RH WIND       PRES   REMARKS
NORFOLK        CLOUDY    54  43  66 NW21G29   29.87S
SO SIOUX CITY  PTSUNNY   56  48  74 NW14      29.83S
TEKAMAH        CLOUDY    57  47  69 NW20      29.83S
ALBION         CLOUDY    55  41  58 N18G29    29.91S
OMAHA EPPLEY   LGT RAIN  54  47  77 NW17      29.83S
OFFUTT AFB     CLOUDY    60  45  59 NW15      29.82S
MILLARD        LGT RAIN  55  51  85 NW8       29.84S
LINCOLN        CLOUDY    55  49  80 NW10      29.88R
NEBRASKA CITY  CLOUDY    57  44  61 N12       29.84S
BEATRICE       CLOUDY    57  45  64 N23G29    29.87S
FALLS CITY     CLOUDY    59  45  59 NW8       29.82S

...NORTHERN KANSAS...

CITY           SKY/WX    TMP DP  RH WIND       PRES   REMARKS
GOODLAND       CLOUDY    59  36  42 N20G25    30.02S
HILL CITY      PTSUNNY   63  35  35 N29G36    29.97S
NORTON         MOCLDY    57  34  41 NW20G30   29.96S
PHILLIPSBURG   CLOUDY    57  39  51 NW18G26   29.96F
SMITH CENTER   CLOUDY    55  39  54 N21G29    29.94S
HAYS           PTSUNNY   61  38  42 N23       29.94S
RUSSELL        CLOUDY    60  41  49 N22G31    29.92S
CONCORDIA      PTSUNNY   59  44  57 N16G29    29.90S
SALINA         MOSUNNY   64  43  46 N21G31    29.89S
TOPEKA         CLOUDY    57  53  86 NW7       29.83S



USA.gov is the U.S. government's official web portal to all federal, state and local government web resources and services.